Regional Weather Roundup
Issued by NWS Glasgow, MT

Home | Current Version | Previous Version | Text Only | Print | Product List | Glossary On
Versions: 1 2 3 4 5 6 7 8 9 10 11 12 13 14 15 16 17 18 19 20 21 22 23 24 25 26 27 28 29 30 31 32 33 34 35 36 37 38 39 40 41 42 43 44 45 46 47 48
000
ASUS45 KGGW 180715
RWRGGW
HOURLY WEATHER ROUNDUP FOR NORTHEAST MONTANA
NATIONAL WEATHER SERVICE GLASGOW MONTANA
100 AM MDT THU SEP 18 2014

NOTE: "FAIR" INDICATES FEW OR NO CLOUDS BELOW 12,000 FEET WITH NO
SIGNIFICANT WEATHER AND/OR OBSTRUCTIONS TO VISISBILITY.

NORTHEAST MONTANA


CITY           SKY/WX    TMP DP  RH WIND       PRES   REMARKS
GLASGOW        CLEAR     58  47  66 E15       29.76F
PLENTYWOOD       N/A     55  45  68 SE5         N/A
WOLF POINT     PTCLDY    57  45  64 NE8       29.80F
JORDAN           N/A     62  51  67 E7        29.76F
WINNETT          N/A     61  48  62 S1          N/A
SIDNEY         CLEAR     54  48  82 S7        29.86F
GLENDIVE       CLEAR     57  50  77 S3        29.86F
MALTA            N/A     58  50  75 NE3         N/A
SCOBEY           N/A     59  42  53 SE9       29.82F

FORT PECK REPORTS


CITY           SKY/WX    TMP DP  RH WIND       PRES   REMARKS
FORT PECK        N/A     64  55  72 SE8         N/A
THE PINES        N/A     65  51  60 SE3         N/A

SOUTHEAST MONTANA


CITY           SKY/WX    TMP DP  RH WIND       PRES   REMARKS
BILLINGS       MOCLDY    67  47  48 SW7       29.85F
MILES CITY     MOCLDY    66  51  58 SE8       29.81F
BAKER          PTCLDY    58  51  78 SE16      29.89F
LIVINGSTON     PTCLDY    54  42  64 CALM      29.90F

CENTRAL MONTANA


CITY           SKY/WX    TMP DP  RH WIND       PRES   REMARKS
HAVRE          CLOUDY    61  52  72 NE8       29.68F
LEWISTOWN      PTCLDY    62  45  53 SE5       29.83S
GREAT FALLS    MOCLDY    66  44  45 S9        29.76F
CUT BANK       CLOUDY    59  47  64 CALM      29.75F
HELENA         PTCLDY    61  47  59 CALM      29.82F
BUTTE          MOCLDY    49  38  65 S3        29.95F
BOZEMAN        PTCLDY    53  44  71 NE3       29.88F

WESTERN MONTANA


CITY           SKY/WX    TMP DP  RH WIND       PRES   REMARKS
MISSOULA       MOCLDY    60  46  59 CALM      29.78S
KALISPELL      NOT AVBL

NORTH DAKOTA


CITY           SKY/WX    TMP DP  RH WIND       PRES   REMARKS
WILLISTON      CLEAR     59  47  64 CALM      29.87F
DICKINSON      PTCLDY    53  46  77 SE12      29.91F
MINOT          CLEAR     48  46  93 SE9       29.96F
BISMARCK       CLEAR     49  46  90 E7        29.99F

SOUTHERN SASKATCHEWAN


CITY           SKY/WX    TMP DP  RH WIND       PRES   REMARKS
REGINA         CLEAR     50  46  87 SE17G24   29.84F
ESTEVAN        PTCLDY    46  45  93 E13       29.91F
SWIFT CURRENT  CLEAR     57  46  67 S16       29.70F



USA.gov is the U.S. government's official web portal to all federal, state and local government web resources and services.